Time,TemperatureF,DewpointF,PressureIn,WindDirection,WindDirectionDegrees,WindSpeedMPH,WindSpeedGustMPH,Humidity,HourlyPrecipIn,Conditions,Clouds,dailyrainin,SoftwareType,DateUTC
2013-03-05 00:04:00,46.2,27.1,29.23,NNW,340,12.4,25.9,47,0.00,,,0.00,WSDL version 426,2013-03-05 06:04:00,
2013-03-05 00:09:00,46.2,26.4,29.23,NNW,333,11.6,20.8,45,0.00,,,0.00,WSDL version 426,2013-03-05 06:09:00,
2013-03-05 00:14:00,46.2,25.9,29.26,North,350,13.5,23.7,44,0.00,,,0.00,WSDL version 426,2013-03-05 06:14:00,
2013-03-05 00:19:00,46.2,25.3,29.26,NNW,348,17.1,25.1,43,0.00,,,0.00,WSDL version 426,2013-03-05 06:19:00,
2013-03-05 00:24:00,46.2,25.0,29.26,North,354,14.8,25.1,43,0.00,,,0.00,WSDL version 426,2013-03-05 06:24:00,
2013-03-05 00:29:00,46.2,25.0,29.29,North,353,15.5,24.4,43,0.00,,,0.00,WSDL version 426,2013-03-05 06:29:00,
2013-03-05 00:34:00,46.2,25.0,29.29,NNW,346,15.9,22.4,43,0.00,,,0.00,WSDL version 426,2013-03-05 06:34:00,
2013-03-05 00:39:00,46.2,25.0,29.29,NNW,335,16.1,24.4,43,0.00,,,0.00,WSDL version 426,2013-03-05 06:39:00,
2013-03-05 00:44:00,46.3,25.3,29.29,NNW,340,12.3,25.5,44,0.00,,,0.00,WSDL version 426,2013-03-05 06:44:00,
2013-03-05 00:49:00,46.2,25.5,29.29,North,353,16.1,25.5,44,0.00,,,0.00,WSDL version 426,2013-03-05 06:49:00,
2013-03-05 00:54:00,46.2,25.8,29.29,NNW,338,11.8,25.1,45,0.00,,,0.00,WSDL version 426,2013-03-05 06:54:00,
2013-03-05 00:59:00,46.1,26.7,29.32,NNW,340,13.0,18.1,47,0.00,,,0.00,WSDL version 426,2013-03-05 06:59:00,
2013-03-05 01:04:00,45.9,27.2,29.32,NNW,338,17.3,24.4,48,0.00,,,0.00,WSDL version 426,2013-03-05 07:04:00,
2013-03-05 01:09:00,45.6,27.9,29.32,NNW,340,19.9,28.6,52,0.00,,,0.00,WSDL version 426,2013-03-05 07:09:00,
2013-03-05 01:14:00,45.0,29.3,29.32,NNW,347,19.8,28.6,55,0.00,,,0.00,WSDL version 426,2013-03-05 07:14:00,
2013-03-05 01:19:00,44.4,30.4,29.32,North,350,18.8,26.4,59,0.00,,,0.00,WSDL version 426,2013-03-05 07:19:00,
2013-03-05 01:24:00,43.6,31.4,29.32,NNW,346,14.4,26.2,64,0.00,,,0.00,WSDL version 426,2013-03-05 07:24:00,
2013-03-05 01:29:00,43.1,32.5,29.32,NW,320,11.8,26.2,68,0.00,,,0.00,WSDL version 426,2013-03-05 07:29:00,
2013-03-05 01:34:00,42.3,33.4,29.32,NW,325,10.8,25.1,72,0.00,,,0.00,WSDL version 426,2013-03-05 07:34:00,
2013-03-05 01:39:00,41.7,33.5,29.32,NNW,340,14.1,25.1,73,0.05,,,0.05,WSDL version 426,2013-03-05 07:39:00,
2013-03-05 01:44:00,41.4,33.4,29.35,NNW,343,13.5,20.6,73,0.05,,,0.05,WSDL version 426,2013-03-05 07:44:00,
2013-03-05 01:49:00,41.4,33.7,29.35,NNW,338,16.1,22.6,74,0.05,,,0.05,WSDL version 426,2013-03-05 07:49:00,
2013-03-05 01:54:00,41.4,34.0,29.35,NNW,340,10.8,22.6,75,0.09,,,0.09,WSDL version 426,2013-03-05 07:54:00,
2013-03-05 01:59:00,41.4,34.3,29.35,NNW,329,8.4,17.2,76,0.09,,,0.09,WSDL version 426,2013-03-05 07:59:00,
2013-03-05 02:04:00,41.5,34.5,29.35,NNW,333,10.6,13.2,76,0.09,,,0.09,WSDL version 426,2013-03-05 08:04:00,
2013-03-05 02:09:00,41.5,34.6,29.35,NW,321,12.0,17.2,77,0.09,,,0.09,WSDL version 426,2013-03-05 08:09:00,
2013-03-05 02:14:00,41.4,34.8,29.38,NW,325,9.1,17.2,78,0.09,,,0.09,WSDL version 426,2013-03-05 08:14:00,
2013-03-05 02:19:00,41.3,34.9,29.38,NNW,333,13.8,19.7,78,0.09,,,0.09,WSDL version 426,2013-03-05 08:19:00,
2013-03-05 02:24:00,41.1,34.5,29.38,NW,326,14.6,27.5,78,0.09,,,0.09,WSDL version 426,2013-03-05 08:24:00,
2013-03-05 02:29:00,40.8,34.7,29.35,NNW,335,12.1,27.5,79,0.09,,,0.09,WSDL version 426,2013-03-05 08:29:00,
2013-03-05 02:34:00,40.6,34.8,29.35,NNW,335,12.1,19.2,80,0.09,,,0.09,WSDL version 426,2013-03-05 08:34:00,
2013-03-05 02:39:00,40.5,34.8,29.35,NNW,340,12.5,16.8,80,0.04,,,0.09,WSDL version 426,2013-03-05 08:39:00,
2013-03-05 02:44:00,40.5,34.6,29.35,NNW,335,9.7,15.4,79,0.04,,,0.09,WSDL version 426,2013-03-05 08:44:00,
2013-03-05 02:49:00,40.5,34.2,29.35,NNW,333,10.3,16.6,78,0.04,,,0.09,WSDL version 426,2013-03-05 08:49:00,
2013-03-05 02:54:00,40.5,33.8,29.35,NNW,345,12.5,18.1,76,0.00,,,0.09,WSDL version 426,2013-03-05 08:54:00,
2013-03-05 02:59:00,40.4,33.5,29.35,NNW,343,8.2,18.1,77,0.00,,,0.09,WSDL version 426,2013-03-05 08:59:00,
2013-03-05 03:04:00,40.3,33.7,29.35,NNW,343,9.1,15.4,77,0.00,,,0.09,WSDL version 426,2013-03-05 09:04:00,
2013-03-05 03:09:00,40.3,33.7,29.35,North,354,7.2,14.3,77,0.00,,,0.09,WSDL version 426,2013-03-05 09:09:00,
2013-03-05 03:14:00,40.2,33.6,29.35,North,350,6.1,13.0,77,0.00,,,0.09,WSDL version 426,2013-03-05 09:14:00,
2013-03-05 03:19:00,40.1,33.4,29.35,North,11,5.9,11.0,76,0.00,,,0.09,WSDL version 426,2013-03-05 09:19:00,
2013-03-05 03:24:00,40.1,33.2,29.35,North,353,4.4,10.5,76,0.00,,,0.09,WSDL version 426,2013-03-05 09:24:00,
2013-03-05 03:29:00,40.2,33.4,29.35,NNW,338,6.3,8.7,77,0.00,,,0.09,WSDL version 426,2013-03-05 09:29:00,
2013-03-05 03:34:00,40.3,33.7,29.35,NW,326,5.6,10.1,77,0.00,,,0.09,WSDL version 426,2013-03-05 09:34:00,
2013-03-05 03:39:00,40.3,33.7,29.35,NW,318,6.3,10.1,77,0.00,,,0.09,WSDL version 426,2013-03-05 09:39:00,
2013-03-05 03:44:00,40.2,33.6,29.35,NW,321,7.5,10.7,77,0.00,,,0.09,WSDL version 426,2013-03-05 09:44:00,
2013-03-05 03:49:00,40.3,33.7,29.35,NNW,335,7.7,10.7,77,0.00,,,0.09,WSDL version 426,2013-03-05 09:49:00,
2013-03-05 03:54:00,40.3,33.7,29.35,NW,305,7.8,11.0,77,0.00,,,0.09,WSDL version 426,2013-03-05 09:54:00,
2013-03-05 03:59:00,40.3,33.7,29.38,NW,318,9.1,11.0,77,0.00,,,0.09,WSDL version 426,2013-03-05 09:59:00,
2013-03-05 04:04:00,40.3,33.9,29.38,NW,315,8.2,11.0,78,0.00,,,0.09,WSDL version 426,2013-03-05 10:04:00,
2013-03-05 04:09:00,40.3,34.0,29.38,NW,318,8.5,13.2,78,0.00,,,0.09,WSDL version 426,2013-03-05 10:09:00,
2013-03-05 04:14:00,40.3,33.9,29.38,NW,315,9.2,13.2,77,0.00,,,0.09,WSDL version 426,2013-03-05 10:14:00,
2013-03-05 04:19:00,40.3,33.6,29.38,NW,312,8.8,12.8,76,0.00,,,0.09,WSDL version 426,2013-03-05 10:19:00,
2013-03-05 04:24:00,40.3,32.9,29.38,NNW,329,10.0,14.1,74,0.00,,,0.09,WSDL version 426,2013-03-05 10:24:00,
2013-03-05 04:29:00,40.5,32.3,29.38,NNW,329,11.9,15.4,71,0.00,,,0.09,WSDL version 426,2013-03-05 10:29:00,
2013-03-05 04:34:00,40.5,31.6,29.38,NW,325,9.3,17.4,70,0.00,,,0.09,WSDL version 426,2013-03-05 10:34:00,
2013-03-05 04:39:00,40.5,31.1,29.38,NW,325,12.8,18.1,68,0.00,,,0.09,WSDL version 426,2013-03-05 10:39:00,
2013-03-05 04:44:00,40.5,31.0,29.41,NW,318,8.5,18.1,69,0.00,,,0.09,WSDL version 426,2013-03-05 10:44:00,
2013-03-05 04:49:00,40.3,30.7,29.41,NNW,329,10.0,16.8,69,0.00,,,0.09,WSDL version 426,2013-03-05 10:49:00,
2013-03-05 04:54:00,40.3,30.6,29.41,NW,323,8.9,14.8,68,0.00,,,0.09,WSDL version 426,2013-03-05 10:54:00,
2013-03-05 04:59:00,40.2,30.5,29.41,NW,318,7.7,14.8,68,0.00,,,0.09,WSDL version 426,2013-03-05 10:59:00,
2013-03-05 05:04:00,40.1,30.3,29.41,NW,318,10.0,14.8,67,0.00,,,0.09,WSDL version 426,2013-03-05 11:04:00,
2013-03-05 05:09:00,40.1,29.8,29.41,NW,313,10.0,14.8,65,0.00,,,0.09,WSDL version 426,2013-03-05 11:09:00,
2013-03-05 05:14:00,40.0,29.2,29.44,NW,323,10.8,16.3,64,0.00,,,0.09,WSDL version 426,2013-03-05 11:14:00,
2013-03-05 05:19:00,40.0,27.9,29.44,NW,318,11.7,23.5,62,0.04,,,0.13,WSDL version 426,2013-03-05 11:19:00,
2013-03-05 05:24:00,39.9,27.1,29.44,NNW,328,13.5,23.5,58,0.04,,,0.13,WSDL version 426,2013-03-05 11:24:00,
2013-03-05 05:29:00,39.7,25.9,29.44,NW,318,14.4,22.8,57,0.04,,,0.13,WSDL version 426,2013-03-05 11:29:00,
2013-03-05 05:34:00,39.5,25.6,29.44,NW,320,11.6,21.5,56,0.04,,,0.13,WSDL version 426,2013-03-05 11:34:00,
2013-03-05 05:39:00,39.2,25.3,29.44,NW,315,10.2,21.5,56,0.04,,,0.13,WSDL version 426,2013-03-05 11:39:00,
2013-03-05 05:44:00,38.9,23.9,29.44,NNW,335,16.3,24.4,53,0.04,,,0.13,WSDL version 426,2013-03-05 11:44:00,
2013-03-05 05:49:00,38.7,23.3,29.44,NNW,328,16.4,27.7,53,0.04,,,0.13,WSDL version 426,2013-03-05 11:49:00,
2013-03-05 05:54:00,38.4,23.1,29.44,NW,326,12.2,27.7,54,0.04,,,0.13,WSDL version 426,2013-03-05 11:54:00,
2013-03-05 05:59:00,38.0,22.9,29.47,NNW,328,12.3,18.6,54,0.04,,,0.13,WSDL version 426,2013-03-05 11:59:00,
2013-03-05 06:04:00,37.9,22.6,29.47,NW,326,11.7,19.2,54,0.04,,,0.13,WSDL version 426,2013-03-05 12:04:00,
2013-03-05 06:09:00,37.6,22.6,29.47,NW,315,13.6,20.1,53,0.04,,,0.13,WSDL version 426,2013-03-05 12:09:00,
2013-03-05 06:14:00,37.4,21.1,29.47,NW,320,14.6,20.1,51,0.04,,,0.13,WSDL version 426,2013-03-05 12:14:00,
2013-03-05 06:19:00,37.1,20.8,29.47,NW,323,11.1,19.9,51,0.00,,,0.13,WSDL version 426,2013-03-05 12:19:00,
2013-03-05 06:24:00,36.8,20.3,29.47,NNW,333,9.8,18.1,51,0.00,,,0.13,WSDL version 426,2013-03-05 12:24:00,
2013-03-05 06:29:00,36.7,19.9,29.47,NW,309,12.4,20.4,50,0.00,,,0.13,WSDL version 426,2013-03-05 12:29:00,
2013-03-05 06:34:00,36.4,19.4,29.47,NW,323,12.7,20.4,49,0.00,,,0.13,WSDL version 426,2013-03-05 12:34:00,
2013-03-05 06:39:00,36.3,18.8,29.47,NW,325,10.7,16.1,49,0.00,,,0.13,WSDL version 426,2013-03-05 12:39:00,
2013-03-05 06:44:00,36.1,18.3,29.50,NW,321,13.0,16.1,47,0.00,,,0.13,WSDL version 426,2013-03-05 12:44:00,
2013-03-05 06:49:00,36.1,16.7,29.50,NW,318,15.7,25.3,45,0.00,,,0.13,WSDL version 426,2013-03-05 12:49:00,
2013-03-05 06:54:00,35.9,16.5,29.50,NNW,332,12.6,25.3,45,0.00,,,0.13,WSDL version 426,2013-03-05 12:54:00,
2013-03-05 06:59:00,35.8,16.0,29.50,NW,318,14.3,19.7,44,0.00,,,0.13,WSDL version 426,2013-03-05 12:59:00,
2013-03-05 07:04:00,35.7,15.9,29.50,NW,323,12.5,19.7,44,0.00,,,0.13,WSDL version 426,2013-03-05 13:04:00,
2013-03-05 07:09:00,35.6,15.7,29.50,NNW,330,11.5,18.8,44,0.00,,,0.13,WSDL version 426,2013-03-05 13:09:00,
2013-03-05 07:14:00,35.6,15.8,29.50,NNW,338,12.5,18.8,44,0.00,,,0.13,WSDL version 426,2013-03-05 13:14:00,
2013-03-05 07:19:00,35.5,16.5,29.50,NNW,330,8.3,17.4,46,0.00,,,0.13,WSDL version 426,2013-03-05 13:19:00,
2013-03-05 07:24:00,35.4,16.7,29.50,NNW,335,9.4,18.1,46,0.00,,,0.13,WSDL version 426,2013-03-05 13:24:00,
2013-03-05 07:29:00,35.4,16.0,29.53,NW,326,12.4,18.1,44,0.00,,,0.13,WSDL version 426,2013-03-05 13:29:00,
2013-03-05 07:34:00,35.5,15.3,29.53,NNW,328,13.6,20.4,42,0.00,,,0.13,WSDL version 426,2013-03-05 13:34:00,
2013-03-05 07:39:00,35.6,14.9,29.53,NNW,332,12.7,20.4,42,0.00,,,0.13,WSDL version 426,2013-03-05 13:39:00,
2013-03-05 07:44:00,35.6,14.5,29.53,NW,326,13.3,19.2,41,0.00,,,0.13,WSDL version 426,2013-03-05 13:44:00,
2013-03-05 07:49:00,35.6,14.2,29.53,NW,326,12.6,18.8,41,0.00,,,0.13,WSDL version 426,2013-03-05 13:49:00,
2013-03-05 07:54:00,35.7,14.2,29.53,NNW,328,15.2,25.5,40,0.00,,,0.13,WSDL version 426,2013-03-05 13:54:00,
2013-03-05 07:59:00,35.8,14.1,29.53,NW,321,12.0,25.5,40,0.00,,,0.13,WSDL version 426,2013-03-05 13:59:00,
2013-03-05 08:04:00,35.8,14.2,29.53,NW,321,10.8,16.8,41,0.00,,,0.13,WSDL version 426,2013-03-05 14:04:00,
2013-03-05 08:09:00,35.9,14.0,29.53,NNW,333,11.5,17.9,40,0.00,,,0.13,WSDL version 426,2013-03-05 14:09:00,
2013-03-05 08:14:00,36.0,14.0,29.53,NNW,335,12.6,17.9,40,0.00,,,0.13,WSDL version 426,2013-03-05 14:14:00,
2013-03-05 08:19:00,36.2,14.2,29.53,NW,323,10.7,17.4,40,0.00,,,0.13,WSDL version 426,2013-03-05 14:19:00,
2013-03-05 08:24:00,36.3,14.3,29.53,NNW,335,14.3,25.1,40,0.00,,,0.13,WSDL version 426,2013-03-05 14:24:00,
2013-03-05 08:29:00,36.4,14.4,29.56,NW,323,12.9,25.1,40,0.00,,,0.13,WSDL version 426,2013-03-05 14:29:00,
2013-03-05 08:34:00,36.5,14.2,29.56,NW,318,17.0,26.4,39,0.00,,,0.13,WSDL version 426,2013-03-05 14:34:00,
2013-03-05 08:39:00,36.5,13.9,29.56,NNW,333,16.5,26.4,39,0.00,,,0.13,WSDL version 426,2013-03-05 14:39:00,
2013-03-05 08:44:00,36.7,14.6,29.56,NW,313,11.9,25.1,40,0.00,,,0.13,WSDL version 426,2013-03-05 14:44:00,
2013-03-05 08:49:00,36.9,14.2,29.56,NW,321,17.6,25.5,39,0.00,,,0.13,WSDL version 426,2013-03-05 14:49:00,
2013-03-05 08:54:00,36.9,14.0,29.56,NW,309,14.7,25.5,38,0.00,,,0.13,WSDL version 426,2013-03-05 14:54:00,
2013-03-05 08:59:00,37.0,14.2,29.59,NW,323,16.7,24.2,39,0.00,,,0.13,WSDL version 426,2013-03-05 14:59:00,
2013-03-05 09:04:00,37.2,13.9,29.59,NW,326,16.8,28.4,38,0.00,,,0.13,WSDL version 426,2013-03-05 15:04:00,
2013-03-05 09:09:00,37.5,13.6,29.59,NNW,335,15.3,28.4,37,0.00,,,0.13,WSDL version 426,2013-03-05 15:09:00,
2013-03-05 09:14:00,37.7,13.7,29.59,NNW,338,16.7,26.4,37,0.00,,,0.13,WSDL version 426,2013-03-05 15:14:00,
2013-03-05 09:19:00,37.9,13.8,29.59,NNW,335,16.0,23.5,37,0.00,,,0.13,WSDL version 426,2013-03-05 15:19:00,
2013-03-05 09:25:00,38.3,14.7,29.59,NNW,343,10.9,23.5,38,0.00,,,0.13,WSDL version 426,2013-03-05 15:25:00,
2013-03-05 09:30:00,38.7,14.8,29.56,NW,308,16.2,23.5,36,0.00,,,0.13,WSDL version 426,2013-03-05 15:30:00,
2013-03-05 09:35:00,38.8,14.2,29.56,NW,307,18.5,29.5,36,0.00,,,0.13,WSDL version 426,2013-03-05 15:35:00,
2013-03-05 09:40:00,38.7,13.4,29.56,NW,323,18.1,29.5,35,0.00,,,0.13,WSDL version 426,2013-03-05 15:40:00,
2013-03-05 09:45:00,38.7,13.4,29.56,NW,321,18.8,26.6,36,0.00,,,0.13,WSDL version 426,2013-03-05 15:45:00,
2013-03-05 09:50:00,38.9,13.5,29.56,NW,325,17.4,27.5,35,0.00,,,0.13,WSDL version 426,2013-03-05 15:50:00,
2013-03-05 09:55:00,39.5,14.4,29.56,NW,315,12.8,27.5,35,0.00,,,0.13,WSDL version 426,2013-03-05 15:55:00,
2013-03-05 10:00:00,39.9,14.4,29.56,NNW,335,18.2,25.9,34,0.00,,,0.13,WSDL version 426,2013-03-05 16:00:00,
2013-03-05 10:05:00,39.8,13.3,29.56,WNW,300,21.9,27.5,33,0.00,,,0.13,WSDL version 426,2013-03-05 16:05:00,
2013-03-05 10:10:00,39.8,13.2,29.56,NW,309,15.9,27.5,33,0.00,,,0.13,WSDL version 426,2013-03-05 16:10:00,
2013-03-05 10:15:00,40.2,13.5,29.56,NNW,333,14.6,27.3,34,0.00,,,0.13,WSDL version 426,2013-03-05 16:15:00,
2013-03-05 10:20:00,40.8,14.4,29.56,NNW,328,12.1,23.3,33,0.00,,,0.13,WSDL version 426,2013-03-05 16:20:00,
2013-03-05 10:25:00,41.1,14.1,29.56,NW,318,17.7,23.5,32,0.00,,,0.13,WSDL version 426,2013-03-05 16:25:00,
2013-03-05 10:30:00,41.0,13.4,29.56,NW,304,14.8,24.4,32,0.00,,,0.13,WSDL version 426,2013-03-05 16:30:00,
2013-03-05 10:35:00,41.5,13.8,29.56,NW,315,13.6,24.4,32,0.00,,,0.13,WSDL version 426,2013-03-05 16:35:00,
2013-03-05 10:40:00,41.8,14.1,29.56,NW,323,13.3,19.2,32,0.00,,,0.13,WSDL version 426,2013-03-05 16:40:00,
2013-03-05 10:45:00,41.8,14.1,29.56,NW,323,16.4,28.0,32,0.00,,,0.13,WSDL version 426,2013-03-05 16:45:00,
2013-03-05 10:50:00,42.0,14.3,29.56,NW,321,14.6,28.0,32,0.00,,,0.13,WSDL version 426,2013-03-05 16:50:00,
2013-03-05 10:55:00,42.3,14.6,29.56,NNW,344,16.4,21.9,32,0.00,,,0.13,WSDL version 426,2013-03-05 16:55:00,
2013-03-05 11:00:00,42.4,14.6,29.59,NW,312,13.3,21.3,32,0.00,,,0.13,WSDL version 426,2013-03-05 17:00:00,
2013-03-05 11:05:00,42.5,14.4,29.59,WNW,302,17.6,22.6,31,0.00,,,0.13,WSDL version 426,2013-03-05 17:05:00,
2013-03-05 11:10:00,42.3,14.0,29.59,NW,313,20.8,28.4,31,0.00,,,0.13,WSDL version 426,2013-03-05 17:10:00,
2013-03-05 11:15:00,42.4,13.9,29.56,NW,318,17.7,28.4,31,0.00,,,0.13,WSDL version 426,2013-03-05 17:15:00,
2013-03-05 11:20:00,42.7,14.3,29.56,NW,315,16.8,25.1,31,0.00,,,0.13,WSDL version 426,2013-03-05 17:20:00,
2013-03-05 11:25:00,43.2,14.6,29.56,NW,323,15.0,25.9,31,0.00,,,0.13,WSDL version 426,2013-03-05 17:25:00,
2013-03-05 11:30:00,43.7,15.1,29.56,NW,321,10.9,25.9,31,0.00,,,0.13,WSDL version 426,2013-03-05 17:30:00,
2013-03-05 11:35:00,44.1,15.4,29.56,NW,305,15.9,23.3,31,0.00,,,0.13,WSDL version 426,2013-03-05 17:35:00,
2013-03-05 11:40:00,44.0,15.3,29.56,WNW,290,15.9,24.4,31,0.00,,,0.13,WSDL version 426,2013-03-05 17:40:00,
2013-03-05 11:45:00,44.1,15.4,29.56,NW,312,16.2,24.4,31,0.00,,,0.13,WSDL version 426,2013-03-05 17:45:00,
2013-03-05 11:50:00,44.1,15.4,29.56,WNW,302,13.9,22.1,31,0.00,,,0.13,WSDL version 426,2013-03-05 17:50:00,
2013-03-05 11:55:00,44.4,15.6,29.56,West,281,14.2,20.6,31,0.00,,,0.13,WSDL version 426,2013-03-05 17:55:00,
2013-03-05 12:00:00,44.7,15.4,29.56,NW,312,12.8,20.8,30,0.00,,,0.13,WSDL version 426,2013-03-05 18:00:00,
2013-03-05 12:05:00,44.6,15.4,29.56,NW,307,13.8,24.6,30,0.00,,,0.13,WSDL version 426,2013-03-05 18:05:00,
2013-03-05 12:10:00,44.8,15.3,29.56,NW,305,10.6,24.6,30,0.00,,,0.13,WSDL version 426,2013-03-05 18:10:00,
2013-03-05 12:15:00,45.6,16.2,29.56,WNW,299,16.1,23.5,30,0.00,,,0.13,WSDL version 426,2013-03-05 18:15:00,
2013-03-05 12:20:00,45.4,15.8,29.56,WNW,300,14.7,24.2,30,0.00,,,0.13,WSDL version 426,2013-03-05 18:20:00,
2013-03-05 12:25:00,45.6,16.0,29.56,WNW,285,14.0,24.2,30,0.00,,,0.13,WSDL version 426,2013-03-05 18:25:00,
2013-03-05 12:30:00,46.1,16.4,29.56,WNW,301,14.6,24.2,30,0.00,,,0.13,WSDL version 426,2013-03-05 18:30:00,
2013-03-05 12:35:00,46.0,16.3,29.56,NW,313,13.8,23.7,30,0.00,,,0.13,WSDL version 426,2013-03-05 18:35:00,
2013-03-05 12:40:00,46.1,16.4,29.56,NW,309,13.5,22.1,30,0.00,,,0.13,WSDL version 426,2013-03-05 18:40:00,
2013-03-05 12:45:00,45.9,16.1,29.59,WNW,301,19.7,26.4,30,0.00,,,0.13,WSDL version 426,2013-03-05 18:45:00,
2013-03-05 12:50:00,46.5,16.1,29.59,WNW,290,12.6,26.4,29,0.00,,,0.13,WSDL version 426,2013-03-05 18:50:00,
2013-03-05 12:55:00,47.0,16.4,29.59,NNW,346,10.8,20.6,29,0.00,,,0.13,WSDL version 426,2013-03-05 18:55:00,
2013-03-05 13:00:00,47.3,16.6,29.56,WNW,295,14.6,24.4,29,0.00,,,0.13,WSDL version 426,2013-03-05 19:00:00,
2013-03-05 13:05:00,47.3,16.7,29.56,NNW,329,12.1,24.4,29,0.00,,,0.13,WSDL version 426,2013-03-05 19:05:00,
2013-03-05 13:11:00,47.7,16.8,29.56,NW,307,19.4,26.6,28,0.00,,,0.13,WSDL version 426,2013-03-05 19:11:00,
2013-03-05 13:16:00,47.3,16.1,29.56,WNW,301,14.3,26.6,29,0.00,,,0.13,WSDL version 426,2013-03-05 19:16:00,
2013-03-05 13:21:00,47.5,16.3,29.56,WNW,285,15.5,23.9,28,0.00,,,0.13,WSDL version 426,2013-03-05 19:21:00,
2013-03-05 13:26:00,47.6,16.3,29.56,West,281,13.1,23.9,28,0.00,,,0.13,WSDL version 426,2013-03-05 19:26:00,
2013-03-05 13:31:00,48.2,16.6,29.56,NW,325,15.0,23.3,28,0.00,,,0.13,WSDL version 426,2013-03-05 19:31:00,
2013-03-05 13:36:00,48.6,16.9,29.56,WNW,293,13.6,23.3,28,0.00,,,0.13,WSDL version 426,2013-03-05 19:36:00,
2013-03-05 13:41:00,48.6,16.9,29.56,West,278,17.4,23.0,28,0.00,,,0.13,WSDL version 426,2013-03-05 19:41:00,
2013-03-05 13:46:00,48.5,16.9,29.56,NW,312,14.1,23.0,28,0.00,,,0.13,WSDL version 426,2013-03-05 19:46:00,
2013-03-05 13:51:00,48.8,17.0,29.56,WNW,298,16.9,22.4,28,0.00,,,0.13,WSDL version 426,2013-03-05 19:51:00,
2013-03-05 13:56:00,49.0,16.8,29.53,WNW,290,15.7,22.4,27,0.00,,,0.13,WSDL version 426,2013-03-05 19:56:00,
2013-03-05 14:01:00,49.0,16.9,29.53,NW,312,13.0,19.7,28,0.00,,,0.13,WSDL version 426,2013-03-05 20:01:00,
2013-03-05 14:06:00,49.3,16.9,29.53,WNW,303,14.1,22.4,27,0.00,,,0.13,WSDL version 426,2013-03-05 20:06:00,
2013-03-05 14:11:00,49.6,17.0,29.53,NW,304,17.0,22.6,27,0.00,,,0.13,WSDL version 426,2013-03-05 20:11:00,
2013-03-05 14:16:00,49.8,17.2,29.53,WNW,295,12.5,22.6,27,0.00,,,0.13,WSDL version 426,2013-03-05 20:16:00,
2013-03-05 14:21:00,50.1,17.4,29.53,NW,309,11.7,17.2,27,0.00,,,0.13,WSDL version 426,2013-03-05 20:21:00,
2013-03-05 14:26:00,50.5,17.8,29.53,WNW,298,9.8,17.2,27,0.00,,,0.13,WSDL version 426,2013-03-05 20:26:00,
2013-03-05 14:31:00,51.1,18.2,29.53,West,280,12.4,17.7,27,0.00,,,0.13,WSDL version 426,2013-03-05 20:31:00,
2013-03-05 14:36:00,51.2,17.6,29.53,WNW,301,13.6,18.1,27,0.00,,,0.13,WSDL version 426,2013-03-05 20:36:00,
2013-03-05 14:41:00,51.2,17.9,29.53,NW,305,11.0,20.1,27,0.00,,,0.13,WSDL version 426,2013-03-05 20:41:00,
2013-03-05 14:46:00,51.8,18.1,29.53,West,273,11.2,20.1,26,0.00,,,0.13,WSDL version 426,2013-03-05 20:46:00,
2013-03-05 14:51:00,51.8,18.0,29.53,WNW,293,11.5,19.5,26,0.00,,,0.13,WSDL version 426,2013-03-05 20:51:00,
2013-03-05 14:56:00,52.2,18.3,29.53,WNW,296,15.4,21.0,26,0.00,,,0.13,WSDL version 426,2013-03-05 20:56:00,
2013-03-05 15:01:00,52.4,18.5,29.53,NW,313,12.3,21.0,26,0.00,,,0.13,WSDL version 426,2013-03-05 21:01:00,
2013-03-05 15:06:00,53.4,18.9,29.53,NW,318,11.8,17.2,25,0.00,,,0.13,WSDL version 426,2013-03-05 21:06:00,
2013-03-05 15:11:00,54.0,19.0,29.53,NW,307,11.7,17.4,25,0.00,,,0.13,WSDL version 426,2013-03-05 21:11:00,
2013-03-05 15:16:00,54.6,17.6,29.53,NW,308,12.1,22.4,23,0.00,,,0.13,WSDL version 426,2013-03-05 21:16:00,
2013-03-05 15:21:00,54.2,15.3,29.53,NW,312,12.8,22.4,23,0.00,,,0.13,WSDL version 426,2013-03-05 21:21:00,
2013-03-05 15:26:00,54.7,16.6,29.53,NW,323,11.6,20.8,20,0.00,,,0.13,WSDL version 426,2013-03-05 21:26:00,
2013-03-05 15:31:00,54.7,14.5,29.53,NW,309,14.8,21.9,20,0.00,,,0.13,WSDL version 426,2013-03-05 21:31:00,
2013-03-05 15:36:00,55.1,14.8,29.53,NW,308,10.2,21.9,20,0.00,,,0.13,WSDL version 426,2013-03-05 21:36:00,
2013-03-05 15:41:00,55.9,15.8,29.53,WNW,290,13.3,17.4,20,0.00,,,0.13,WSDL version 426,2013-03-05 21:41:00,
2013-03-05 15:46:00,56.2,15.6,29.53,NW,304,10.3,16.8,20,0.00,,,0.13,WSDL version 426,2013-03-05 21:46:00,
2013-03-05 15:51:00,55.7,15.2,29.53,WNW,290,13.6,19.2,20,0.00,,,0.13,WSDL version 426,2013-03-05 21:51:00,
2013-03-05 15:56:00,55.4,15.0,29.53,NW,307,11.9,20.8,20,0.00,,,0.13,WSDL version 426,2013-03-05 21:56:00,
2013-03-05 16:01:00,56.0,15.5,29.53,NW,313,11.5,20.8,20,0.00,,,0.13,WSDL version 426,2013-03-05 22:01:00,
2013-03-05 16:06:00,56.4,15.8,29.53,WNW,287,12.4,17.9,20,0.00,,,0.13,WSDL version 426,2013-03-05 22:06:00,
2013-03-05 16:11:00,56.3,15.7,29.56,NW,313,11.6,17.9,20,0.00,,,0.13,WSDL version 426,2013-03-05 22:11:00,
2013-03-05 16:16:00,56.0,14.3,29.56,NNW,328,14.5,21.3,17,0.00,,,0.13,WSDL version 426,2013-03-05 22:16:00,
2013-03-05 16:21:00,55.6,13.0,29.56,NW,304,11.1,21.3,17,0.00,,,0.13,WSDL version 426,2013-03-05 22:21:00,
2013-03-05 16:26:00,55.4,12.3,29.53,NW,325,14.7,22.4,18,0.00,,,0.13,WSDL version 426,2013-03-05 22:26:00,
2013-03-05 16:31:00,55.3,15.0,29.53,NW,304,12.0,22.4,20,0.00,,,0.13,WSDL version 426,2013-03-05 22:31:00,
2013-03-05 16:36:00,55.7,15.3,29.53,NW,309,13.1,19.7,20,0.00,,,0.13,WSDL version 426,2013-03-05 22:36:00,
2013-03-05 16:41:00,55.8,15.4,29.53,WNW,298,10.7,19.7,20,0.00,,,0.13,WSDL version 426,2013-03-05 22:41:00,
2013-03-05 16:46:00,56.2,15.7,29.53,NW,309,9.3,15.4,20,0.00,,,0.13,WSDL version 426,2013-03-05 22:46:00,
2013-03-05 16:51:00,56.1,13.4,29.53,WNW,300,13.1,17.2,17,0.00,,,0.13,WSDL version 426,2013-03-05 22:51:00,
2013-03-05 16:56:00,55.5,13.4,29.53,NW,315,10.4,24.6,17,0.00,,,0.13,WSDL version 426,2013-03-05 22:56:00,
2013-03-05 17:01:00,55.4,13.3,29.53,NW,308,13.9,24.6,20,0.00,,,0.13,WSDL version 426,2013-03-05 23:01:00,
2013-03-05 17:06:00,55.3,11.5,29.53,NW,315,13.8,22.1,18,0.00,,,0.13,WSDL version 426,2013-03-05 23:06:00,
2013-03-05 17:11:00,54.7,12.4,29.53,NW,315,11.6,19.9,20,0.00,,,0.13,WSDL version 426,2013-03-05 23:11:00,
2013-03-05 17:16:00,54.7,13.2,29.53,NW,312,10.4,19.2,20,0.00,,,0.13,WSDL version 426,2013-03-05 23:16:00,
2013-03-05 17:21:00,54.6,14.3,29.53,NNW,330,11.5,17.4,20,0.00,,,0.13,WSDL version 426,2013-03-05 23:21:00,
2013-03-05 17:26:00,53.9,13.8,29.53,NW,307,13.1,20.4,20,0.00,,,0.13,WSDL version 426,2013-03-05 23:26:00,
2013-03-05 17:31:00,53.7,13.6,29.53,WNW,301,10.8,20.4,20,0.00,,,0.13,WSDL version 426,2013-03-05 23:31:00,
2013-03-05 17:36:00,53.3,14.4,29.53,NW,305,11.8,17.4,21,0.00,,,0.13,WSDL version 426,2013-03-05 23:36:00,
2013-03-05 17:41:00,53.0,14.1,29.53,NW,309,12.0,15.7,21,0.00,,,0.13,WSDL version 426,2013-03-05 23:41:00,
2013-03-05 17:46:00,52.3,13.5,29.53,NW,310,12.8,18.1,21,0.00,,,0.13,WSDL version 426,2013-03-05 23:46:00,
2013-03-05 17:51:00,51.5,12.9,29.53,NW,321,12.2,18.1,21,0.00,,,0.13,WSDL version 426,2013-03-05 23:51:00,
2013-03-05 17:56:00,51.1,12.6,29.53,NW,309,11.7,15.2,21,0.00,,,0.13,WSDL version 426,2013-03-05 23:56:00,
2013-03-05 18:01:00,50.5,12.0,29.53,NW,308,13.9,21.9,21,0.00,,,0.13,WSDL version 426,2013-03-06 00:01:00,
2013-03-05 18:06:00,49.6,13.1,29.53,NW,315,12.4,21.9,24,0.00,,,0.13,WSDL version 426,2013-03-06 00:06:00,
2013-03-05 18:11:00,48.8,13.6,29.56,NW,310,10.9,16.3,24,0.00,,,0.13,WSDL version 426,2013-03-06 00:11:00,
2013-03-05 18:16:00,48.0,13.8,29.56,NW,321,12.4,17.0,27,0.00,,,0.13,WSDL version 426,2013-03-06 00:16:00,
2013-03-05 18:21:00,47.3,15.0,29.56,NW,315,10.3,17.0,27,0.00,,,0.13,WSDL version 426,2013-03-06 00:21:00,
2013-03-05 18:26:00,46.9,14.6,29.56,NW,315,9.3,16.3,27,0.00,,,0.13,WSDL version 426,2013-03-06 00:26:00,
2013-03-05 18:31:00,46.4,14.5,29.56,NW,308,9.4,15.4,28,0.00,,,0.13,WSDL version 426,2013-03-06 00:31:00,
2013-03-05 18:36:00,46.1,14.8,29.56,NW,315,8.3,15.4,28,0.00,,,0.13,WSDL version 426,2013-03-06 00:36:00,
2013-03-05 18:41:00,45.8,14.5,29.56,NW,309,8.9,14.5,28,0.00,,,0.13,WSDL version 426,2013-03-06 00:41:00,
2013-03-05 18:46:00,45.4,14.2,29.56,NW,310,8.6,13.2,28,0.00,,,0.13,WSDL version 426,2013-03-06 00:46:00,
2013-03-05 18:51:00,45.2,14.0,29.56,NW,312,7.8,13.2,28,0.00,,,0.13,WSDL version 426,2013-03-06 00:51:00,
2013-03-05 18:56:00,45.0,14.1,29.56,WNW,303,8.4,12.8,29,0.00,,,0.13,WSDL version 426,2013-03-06 00:56:00,
2013-03-05 19:01:00,44.8,14.5,29.56,NW,312,8.8,12.3,29,0.00,,,0.13,WSDL version 426,2013-03-06 01:01:00,
2013-03-05 19:06:00,44.6,14.3,29.56,NW,308,7.6,12.5,29,0.00,,,0.13,WSDL version 426,2013-03-06 01:06:00,
2013-03-05 19:12:00,44.5,14.8,29.56,NW,307,9.1,12.3,30,0.00,,,0.13,WSDL version 426,2013-03-06 01:12:00,
2013-03-05 19:17:00,44.3,14.8,29.56,NW,309,8.8,12.3,30,0.00,,,0.13,WSDL version 426,2013-03-06 01:17:00,
2013-03-05 19:23:00,44.1,14.6,29.56,NW,312,6.7,10.7,30,0.00,,,0.13,WSDL version 426,2013-03-06 01:23:00,
2013-03-05 19:28:00,43.8,15.0,29.56,NW,318,7.3,11.9,31,0.00,,,0.13,WSDL version 426,2013-03-06 01:28:00,
2013-03-05 19:33:00,43.7,15.0,29.56,NW,315,7.2,11.9,31,0.00,,,0.13,WSDL version 426,2013-03-06 01:33:00,
2013-03-05 19:38:00,43.5,14.9,29.56,NW,310,7.5,9.8,31,0.00,,,0.13,WSDL version 426,2013-03-06 01:38:00,
2013-03-05 19:43:00,43.3,14.7,29.59,NW,309,7.0,10.7,31,0.00,,,0.13,WSDL version 426,2013-03-06 01:43:00,
2013-03-05 19:49:00,43.1,14.9,29.59,NW,308,5.7,10.7,32,0.00,,,0.13,WSDL version 426,2013-03-06 01:49:00,
2013-03-05 19:54:00,42.8,15.0,29.59,WNW,298,4.9,7.6,32,0.00,,,0.13,WSDL version 426,2013-03-06 01:54:00,
2013-03-05 19:59:00,42.5,15.1,29.56,NW,307,4.3,6.3,33,0.00,,,0.13,WSDL version 426,2013-03-06 01:59:00,
2013-03-05 20:04:00,42.2,15.2,29.56,NW,309,5.0,8.5,33,0.00,,,0.13,WSDL version 426,2013-03-06 02:04:00,
2013-03-05 20:09:00,41.9,15.1,29.56,WNW,300,4.5,8.5,34,0.00,,,0.13,WSDL version 426,2013-03-06 02:09:00,
2013-03-05 20:14:00,41.7,15.4,29.59,WNW,303,4.6,5.8,34,0.00,,,0.13,WSDL version 426,2013-03-06 02:14:00,
2013-03-05 20:19:00,41.5,15.5,29.59,NNW,329,4.6,6.0,35,0.00,,,0.13,WSDL version 426,2013-03-06 02:19:00,
2013-03-05 20:24:00,41.2,15.8,29.59,NW,325,4.6,7.8,36,0.00,,,0.13,WSDL version 426,2013-03-06 02:24:00,
2013-03-05 20:30:00,41.1,16.2,29.59,WNW,303,4.8,7.8,36,0.00,,,0.13,WSDL version 426,2013-03-06 02:30:00,
2013-03-05 20:35:00,41.0,16.1,29.59,NW,318,4.2,6.5,36,0.00,,,0.13,WSDL version 426,2013-03-06 02:35:00,
2013-03-05 20:40:00,40.8,16.9,29.59,NW,309,4.2,6.3,38,0.00,,,0.13,WSDL version 426,2013-03-06 02:40:00,
2013-03-05 20:45:00,40.6,17.0,29.59,NW,315,4.2,6.3,38,0.00,,,0.13,WSDL version 426,2013-03-06 02:45:00,
2013-03-05 20:50:00,40.5,16.9,29.59,WNW,298,3.9,6.3,38,0.00,,,0.13,WSDL version 426,2013-03-06 02:50:00,
2013-03-05 20:55:00,40.3,16.7,29.59,NW,310,3.7,6.3,38,0.00,,,0.13,WSDL version 426,2013-03-06 02:55:00,
2013-03-05 21:00:00,40.2,17.1,29.59,WNW,301,5.3,6.5,39,0.00,,,0.13,WSDL version 426,2013-03-06 03:00:00,
2013-03-05 21:06:00,40.3,17.3,29.59,NNW,328,4.1,7.2,39,0.00,,,0.13,WSDL version 426,2013-03-06 03:06:00,
2013-03-05 21:11:00,40.0,17.1,29.59,NNW,335,5.2,7.8,39,0.00,,,0.13,WSDL version 426,2013-03-06 03:11:00,
2013-03-05 21:16:00,39.8,16.9,29.59,NW,325,4.2,7.8,39,0.00,,,0.13,WSDL version 426,2013-03-06 03:16:00,
2013-03-05 21:21:00,39.7,16.7,29.59,NNW,340,5.3,6.5,39,0.00,,,0.13,WSDL version 426,2013-03-06 03:21:00,
2013-03-05 21:26:00,39.4,16.5,29.62,NNW,333,4.6,7.4,39,0.00,,,0.13,WSDL version 426,2013-03-06 03:26:00,
2013-03-05 21:31:00,39.2,16.3,29.62,NNW,330,4.2,7.4,39,0.00,,,0.13,WSDL version 426,2013-03-06 03:31:00,
2013-03-05 21:37:00,39.0,16.5,29.62,NW,320,4.0,6.3,40,0.00,,,0.13,WSDL version 426,2013-03-06 03:37:00,
2013-03-05 21:42:00,38.8,16.6,29.59,NW,325,4.4,6.0,40,0.00,,,0.13,WSDL version 426,2013-03-06 03:42:00,
2013-03-05 21:47:00,38.7,16.4,29.59,NW,325,4.5,6.5,40,0.00,,,0.13,WSDL version 426,2013-03-06 03:47:00,
2013-03-05 21:52:00,38.7,16.4,29.59,NNW,330,4.8,6.5,40,0.00,,,0.13,WSDL version 426,2013-03-06 03:52:00,
2013-03-05 21:57:00,38.5,16.3,29.62,NW,321,5.6,7.4,40,0.00,,,0.13,WSDL version 426,2013-03-06 03:57:00,
2013-03-05 22:02:00,38.5,16.3,29.62,NW,310,4.6,7.4,40,0.00,,,0.13,WSDL version 426,2013-03-06 04:02:00,
2013-03-05 22:08:00,38.5,16.3,29.62,NW,318,5.7,7.4,40,0.00,,,0.13,WSDL version 426,2013-03-06 04:08:00,
2013-03-05 22:14:00,38.3,16.1,29.62,NW,321,5.3,7.6,40,0.00,,,0.13,WSDL version 426,2013-03-06 04:14:00,
2013-03-05 22:19:00,38.3,16.1,29.62,NNW,328,5.6,8.1,40,0.00,,,0.13,WSDL version 426,2013-03-06 04:19:00,
2013-03-05 22:24:00,38.2,16.0,29.62,NNW,332,6.3,8.5,40,0.00,,,0.13,WSDL version 426,2013-03-06 04:24:00,
2013-03-05 22:29:00,38.1,16.0,29.62,NW,325,5.3,8.5,40,0.00,,,0.13,WSDL version 426,2013-03-06 04:29:00,
2013-03-05 22:34:00,37.8,16.2,29.62,NW,320,6.2,8.1,41,0.00,,,0.13,WSDL version 426,2013-03-06 04:34:00,
2013-03-05 22:40:00,37.8,16.2,29.62,NW,323,5.9,8.1,41,0.00,,,0.13,WSDL version 426,2013-03-06 04:40:00,
2013-03-05 22:45:00,37.6,16.0,29.62,NW,321,6.4,8.1,41,0.00,,,0.13,WSDL version 426,2013-03-06 04:45:00,
2013-03-05 22:50:00,37.6,16.0,29.62,NNW,328,6.1,8.5,41,0.00,,,0.13,WSDL version 426,2013-03-06 04:50:00,
2013-03-05 22:55:00,37.5,15.9,29.62,NNW,328,5.7,9.6,41,0.00,,,0.13,WSDL version 426,2013-03-06 04:55:00,
2013-03-05 23:00:00,37.4,15.9,29.62,NNW,332,6.7,9.6,41,0.00,,,0.13,WSDL version 426,2013-03-06 05:00:00,
2013-03-05 23:01:00,37.4,15.9,29.62,NNW,330,5.9,9.2,42,0.00,,,0.13,WSDL version 426,2013-03-06 05:01:00,
2013-03-05 23:07:00,37.1,16.1,29.62,NW,311,5.1,9.2,42,0.00,,,0.13,WSDL version 426,2013-03-06 05:07:00,
2013-03-05 23:09:00,37.0,16.1,29.62,NW,307,5.2,7.8,42,0.00,,,0.13,WSDL version 426,2013-03-06 05:09:00,
2013-03-05 23:11:00,37.0,16.1,29.62,NW,305,6.2,7.8,42,0.00,,,0.13,WSDL version 426,2013-03-06 05:11:00,
2013-03-05 23:16:00,36.9,16.0,29.62,NW,320,5.6,8.1,42,0.00,,,0.13,WSDL version 426,2013-03-06 05:16:00,
2013-03-05 23:22:00,36.9,15.9,29.62,North,0,0.0,8.7,42,0.00,,,0.13,WSDL version 426,2013-03-06 05:22:00,
2013-03-05 23:28:00,36.8,15.9,29.62,NNW,332,4.8,8.5,42,0.00,,,0.13,WSDL version 426,2013-03-06 05:28:00,
2013-03-05 23:33:00,36.6,15.7,29.62,NNW,338,5.5,8.5,42,0.00,,,0.13,WSDL version 426,2013-03-06 05:33:00,
2013-03-05 23:38:00,36.4,16.0,29.62,NNW,332,6.4,8.5,43,0.00,,,0.13,WSDL version 426,2013-03-06 05:38:00,
2013-03-05 23:43:00,36.3,15.9,29.62,NNW,328,5.4,8.7,43,0.00,,,0.13,WSDL version 426,2013-03-06 05:43:00,
2013-03-05 23:48:00,36.1,15.8,29.62,NNW,335,5.8,8.7,43,0.00,,,0.13,WSDL version 426,2013-03-06 05:48:00,
2013-03-05 23:53:00,36.0,15.7,29.62,NNW,333,5.7,9.6,43,0.00,,,0.13,WSDL version 426,2013-03-06 05:53:00,
2013-03-05 23:58:00,35.8,15.5,29.62,NNW,335,5.5,10.1,43,0.00,,,0.13,WSDL version 426,2013-03-06 05:58:00,